Location: Grassland Mountain Observatory
(35.7543°N, 82.8038°W)
Time: 17:27:28
(UTC-05:00)

X-37B - Pass Details

Date: 09 December 2021
Orbit: 331 x 339 km, 45.0° (Epoch: 27 January)

Event Time Altitude Azimuth Distance (km) Brightness Sun altitude
Rises 18:58:21 0° 286° (WNW) 2,093 5.3 -19.8°
Reaches altitude 10° 19:00:57 10° 312° (NW) 1,257 3.6 -20.4°
Enters shadow 19:01:53 14° 331° (NNW) 1,076 3.0 -20.5°
